Regional Weather Roundup
Issued by NWS

Home | Current Version | Previous Version | Text Only | Print | Product List | Glossary Off
Versions: 1 2 3 4 5 6 7 8 9 10 11 12 13 14 15 16 17 18 19 20 21 22 23 24 25 26 27 28 29 30 31 32 33 34 35 36 37 38 39 40 41 42 43 44 45 46 47 48 49 50

000
ASUS43 KTOP 072108
RWRKS

WEATHER ROUNDUP FOR KANSAS
NATIONAL WEATHER SERVICE GOODLAND KS
400 PM CDT TUE JUL 07 2015

NOTE:  "FAIR" INDICATES FEW OR NO CLOUDS BELOW 12,000 FEET WITH NO
SIGNIFICANT WEATHER AND/OR OBSTRUCTIONS TO VISIBILITY.

KSZ001>006-013>018-027>032-041>047-072200-
NORTHWEST KANSAS

CITY           SKY/WX    TMP DP  RH WIND       PRES   REMARKS
GOODLAND       SUNNY     75  44  33 SE13      30.14F
HAYS           MOSUNNY   79  48  34 E10G23    30.10F
HILL CITY      MOSUNNY   80  48  32 E17G23    30.12F
RUSSELL        MOSUNNY   76  50  40 E13G23    30.08F
$$

KSZ061>065-074>080-084>089-072200-
SOUTHWEST KANSAS

CITY           SKY/WX    TMP DP  RH WIND       PRES   REMARKS
DODGE CITY     PTSUNNY   75  45  34 NE13G22   30.10F
ELKHART          N/A     78  49  36 SE10        N/A
GARDEN CITY    MOSUNNY   76  45  33 E12       30.11F
GREAT BEND     PTSUNNY   73  50  43 NE14      30.10F
LIBERAL        MOSUNNY   75  52  43 NE12G18   30.12F
PRATT          CLOUDY    70  43  37 E12G20    30.10F
$$

KSZ066>073-081>083-090>101-072200-
SOUTHEAST KANSAS

CITY           SKY/WX    TMP DP  RH WIND       PRES   REMARKS
CHANUTE        CLOUDY    67  64  90 N6        30.04F FOG
COFFEYVILLE    CLOUDY    68  63  84 NE8       30.04R
HUTCHINSON     CLOUDY    69  51  52 NE9       30.09F
MEDICINE LODGE   N/A     68  52  56 NE15      30.08F
NEWTON         CLOUDY    66  48  52 NE12G17   30.10S
PARSONS        CLOUDY    66  64  93 NE6       30.05S FOG
WICHITA INTL   LGT RAIN  70  51  51 N15       30.06F
WICHITA JABRA  CLOUDY    69  54  58 N13       30.06F
WICHITA MCCONL CLOUDY    69  56  63 N14       30.06S
WINFIELD       CLOUDY    67  60  78 NE13      30.07S HAZE
$$

KSZ007>012-019>026-033>040-048>060-102>105-072200-
NORTHEAST KANSAS

CITY           SKY/WX    TMP DP  RH WIND       PRES   REMARKS
CONCORDIA      MOSUNNY   73  51  46 NE14G23   30.10F
EMPORIA        CLOUDY    72  59  63 N12       30.06F
LAWRENCE       CLOUDY    70  58  65 N7G16     30.06F
MANHATTAN      CLOUDY    72  52  49 NE12      30.08F
MARYSVILLE     PTSUNNY   72  52  49 E9        30.10S
OLATHE IND     CLOUDY    71  61  70 N14       30.06S HAZE
OLATHE EXE     CLOUDY    72  58  61 N12       30.04S HAZE
SALINA         CLOUDY    74  48  39 NE14      30.09S
TOPEKA BILLARD CLOUDY    70  58  65 NE7       30.06F
TOPEKA FORBES  CLOUDY    71  58  63 NE7       30.07S
$$


USA.gov is the U.S. government's official web portal to all federal, state and local government web resources and services.